Regional Weather Roundup
Issued by NWS

Home | Current Version | Previous Version | Text Only | Print | Product List | Glossary Off
Versions: 1 2 3 4 5 6 7 8 9 10 11 12 13 14 15 16 17 18 19 20 21 22 23 24 25 26 27 28 29 30 31 32 33 34 35 36 37 38 39 40 41 42 43 44 45 46 47 48 49 50

000
ASUS43 KLOT 131008
RWRIL

ILLINOIS REGIONAL WEATHER ROUNDUP
NATIONAL WEATHER SERVICE CHICAGO/ROMEOVILLE IL
400 AM CST SAT FEB 13 2016

NOTE: "FAIR" INDICATES FEW OR NO CLOUDS BELOW 12,000 FEET WITH NO
SIGNIFICANT WEATHER AND/OR OBSTRUCTIONS TO VISIBILITY.

* THESE STATIONS ARE NOT UNDER NWS QUALITY CONTROL. THEY ALSO MAY NOT
  REPORT WEATHER SUCH AS PRECIPITATION OR FOG.

ILZ001-002-007-009-015-016-024-131100-
NORTHWEST ILLINOIS

CITY           SKY/WX    TMP DP  RH WIND       PRES   REMARKS
MOLINE         PTCLDY     6  -7  54 NW10      30.61S WCI  -9
STERLING*      PTCLDY     5  -9  51 NW8       30.56S WCI  -8
SAVANNA*       PTCLDY     4  -9  55 NW8       30.61S WCI  -9
$$

ILZ003-004-008-010-011-017-018-131100-
NORTH CENTRAL ILLINOIS

CITY           SKY/WX    TMP DP  RH WIND       PRES   REMARKS
ROCKFORD       PTCLDY     3 -11  52 NW8       30.58S WCI -10
FREEPORT*      MOCLDY     2 -10  56 NW8       30.58S WCI -11
ROCHELLE*      CLEAR      4  -9  56 NW9       30.57R WCI -10
DE KALB*       MOCLDY     3  -9  56 NW7       30.54S WCI  -9
$$

ILZ005-006-012>014-019>023-131100-
NORTHEAST ILLINOIS

CITY           SKY/WX    TMP DP  RH WIND       PRES   REMARKS
CHICAGO-OHARE  CLEAR      4 -10  52 NW13      30.53R WCI -13
CHICAGO-MIDWAY PTCLDY     6 -11  45 NW14      30.54R WCI -11
AURORA         PTCLDY     4  -9  55 N14       30.55S WCI -14
LANSING*       PTCLDY     5 -11  46 N10G18    30.54R WCI -10
WAUKEGAN       CLEAR      2 -11  54 NW8       30.51S WCI -12
DUPAGE AIRPORT PTCLDY     3 -11  52 NW15      30.53S WCI -16
KANKAKEE*      CLEAR      7  -8  50 NW9       30.56R WCI  -7
WHEELING       CLEAR      3 -10  54 NW9       30.55R WCI -12
MORRIS*        CLEAR      5  -8  56 NW8       30.53S WCI  -8
ROMEOVILLE*    PTCLDY     4 -10  50 NW12      30.54S WCI -12
NORTHERLY ISL    N/A      6  -7  54 NW13        N/A  WCI -10
$$

LMZ740>746-131100-
SOUTHERN LAKE MICHIGAN

STATION/POSITION SKY/WX   TEMP    WIND        PRES    VSBY  WAVE
                          AIR SEA DIR/SP/G                  HT/PER
                          (F)     (DEG/KT/KT) (MB)    (MI)  (FT/S)
HARRISON CRIB               7     310/ 22/ 27   N/A
BURNHAM HARBOR              6     300/ 16       N/A
CALUMET HARBOR              5     290/ 11/ 16 1032.9R
BURNS HARBOR               12     310/ 17     1032.5R
MICHIGAN CITY              13     310/ 28/ 31   N/A
$$

ILZ025>027-034>036-040-047-049-050-058-095>099-131100-
WEST-CENTRAL ILLINOIS

CITY           SKY/WX    TMP DP  RH WIND       PRES   REMARKS
QUINCY         PTCLDY     4  -4  69 N9        30.62R WCI -10
GALESBURG*     PTCLDY     4  -3  72 NW5       30.60S WCI  -6
MACOMB*        PTCLDY     6  -1  70 N9        30.63R WCI  -7
JACKSONVILLE*  CLOUDY    11   0  61 NW9       30.61R WCI  -2
PITTSFIELD*    CLOUDY     9   0  66 N7        30.61S WCI  -3
$$

ILZ028>032-037-038-041>044-048-051>054-059>061-131100-
CENTRAL ILLINOIS

CITY           SKY/WX    TMP DP  RH WIND       PRES   REMARKS
PONTIAC        CLEAR      7  -4  60 N10       30.58R WCI  -8
BLOOMINGTON    CLEAR      6  -5  60 N10       30.56R WCI  -9
DECATUR        CLEAR      9   0  67 N9        30.57R WCI  -4
PEORIA         CLEAR      7  -7  52 N6        30.60R WCI  -3
LACON*         CLEAR      6  -9  49 N8        30.60R WCI  -7
LINCOLN*       CLEAR      9   1  69 N5        30.59R WCI   0
SPRINGFIELD    CLOUDY     9  -1  64 NW9       30.60R WCI  -4
TAYLORVILLE    CLEAR     10   1  67 NW13      30.59R WCI  -5
$$

ILZ033-039-045-046-055>057-062-063-131100-
EAST-CENTRAL ILLINOIS

CITY           SKY/WX    TMP DP  RH WIND       PRES   REMARKS
CHAMPAIGN      CLEAR      8  -3  61 N13       30.54R WCI  -8
RANTOUL*       CLEAR      9  -2  61 N14       30.54R WCI  -8
MATTOON        CLEAR      9  -2  61 N13       30.54R WCI  -7
PARIS*         CLEAR      9   0  68 N7        30.54R WCI  -3
$$

ILZ079-100>102-131100-
SOUTHWEST ILLINOIS

CITY           SKY/WX    TMP DP  RH WIND       PRES   REMARKS
ALTON          CLOUDY    11   3  68 NW6       30.61S WCI   2
BELLEVILLE     CLEAR     13   2  62 N6        30.60R WCI   4
CAHOKIA*       CLEAR     14   2  58 N14       30.62R WCI  -1
SPARTA*        CLEAR     15   6  68 N9        30.60R WCI   3
$$

ILZ064>066-069>071-074>076-080>082-084>086-088>090-092>094-131100-
SOUTH-CENTRAL ILLINOIS

CITY           SKY/WX    TMP DP  RH WIND       PRES   REMARKS
CARBONDALE     CLEAR     16   5  62 N13       30.59R WCI   2
CAIRO*         PTCLDY    19   8  60 N15G21    30.56S WCI   5
EFFINGHAM*     CLEAR     13   5  70 NW9G16    30.58R WCI   0
MARION         CLEAR     18   5  57 N8G17     30.59R WCI   7
MT. VERNON     CLEAR     14   1  57 N6        30.57R WCI   5
CENTRALIA*     CLEAR     15   5  66 N12G18    30.57R WCI   1
SALEM*         CLEAR     15   4  62 N10       30.57S WCI   2
METROPOLIS*    CLEAR     19  10  67 N12       30.56R WCI   7
$$

ILZ067-068-072-073-078-083-087-091-131100-
SOUTHEAST ILLINOIS

CITY           SKY/WX    TMP DP  RH WIND       PRES   REMARKS
LAWRENCEVILLE  CLEAR     13   3  64 NW13      30.55R WCI  -2
FLORA*         CLEAR     15   4  63 NW12      30.58R WCI   1
FAIRFIELD*     CLEAR     15   5  64 N7        30.57R WCI   5
HARRISBURG*    CLEAR     17   8  68 N6        30.58R WCI   8
ROBINSON*      CLEAR     12   2  64 N12       30.56R WCI  -2
CARMI*         CLEAR     15   7  71 N9        30.56R WCI   3
$$

ABBREVIATIONS USED IN REMARKS
   TC - TEMPERATURE IN CELSIUS
  WCI - WIND CHILL INDEX
   HX - HEAT INDEX
  VSB - VISIBILITY
$$




USA.gov is the U.S. government's official web portal to all federal, state and local government web resources and services.